Location: Brede
(50.9167°N, 0.6000°E)
Time: 20:48:21
(UTC+00:00)

Altair - Pass Details

Date: 01 August 2021
Orbit: 1501 x 1682 km, 47.2° (Epoch: 22 September)

Event Time Altitude Azimuth Distance (km) Brightness Sun altitude
Exits shadow 23:38:14 18° 130° (SE) 3,132 8.7 -21.1°
Maximum altitude 23:38:21 18° 130° (SE) 3,131 8.7 -21.1°
Drops below altitude 10° 23:43:59 10° 91° (E) 3,691 9.4 -21.2°
Sets 23:48:14 0° 74° (ENE) 4,657 10.2 -21.2°
